[Date Prev][Date Next][Thread Prev][Thread Next] - [Date Index][Thread Index][Author Index]

2 Line ISS Keps 10-31



ISS
1 25544U 98067A   01304.39006029  .00061306  00000-0  77125-3 0  6715
2 25544  51.6398 123.7272 0008510 270.6461 163.3693 15.59026034168335


----
Via the sarex mailing list at AMSAT.ORG courtesy of AMSAT-NA.
To unsubscribe, send "unsubscribe sarex" to Majordomo@amsat.org



AMSAT Top AMSAT Home